This is the latest recevied weather packets stored in our database for station/object OE-11179. If no packets are shown the sender has not sent any weather packets the latest 10 day(s).
| Time | Temp. | Humidity | Pressure | Rain* | Wind** | Luminosity | Snow |
|---|---|---|---|---|---|---|---|
| 1787876732 | 15° C | 90% | - | 0 mm | - | - | - |
| 1787875904 | 15° C | 88% | - | 0 mm | - | - | - |
| 1787875531 | 15.56° C | 89% | - | 0 mm | - | - | - |
| 1787874932 | 15.56° C | 89% | - | 0 mm | - | - | - |
| 1787874104 | 15.56° C | 88% | - | 0 mm | - | - | - |
| 1787873732 | 15.56° C | 89% | - | 0 mm | - | - | - |
| 1787873131 | 15.56° C | 87% | - | 0 mm | - | - | - |
| 1787872532 | 16.11° C | 87% | - | 0 mm | - | - | - |
| 1787871931 | 15.56° C | 90% | - | 0 mm | - | - | - |
| 1787870505 | 16.11° C | 87% | - | 0 mm | - | - | - |
| 1787870132 | 16.11° C | 87% | - | 0 mm | - | - | - |
| 1787869532 | 15.56° C | 87% | - | 0 mm | - | - | - |
| 1787868705 | 16.67° C | 86% | - | 0 mm | - | - | - |
| 1787868331 | 16.11° C | 84% | - | 0 mm | - | - | - |
| 1787867732 | 16.67° C | 85% | - | 0 mm | - | - | - |
| 1787866905 | 16.67° C | 84% | - | 0 mm | - | - | - |
| 1787866531 | 16.67° C | 84% | - | 0 mm | - | - | - |
| 1787865932 | 16.67° C | 82% | - | 0 mm | - | - | - |
| 1787865106 | 17.22° C | 82% | - | 0 mm | - | - | - |
| 1787864731 | 17.22° C | 81% | - | 0 mm | - | - | - |
| 1787864131 | 17.78° C | 80% | - | 0 mm | - | - | - |
| 1787863305 | 17.78° C | 80% | - | 0 mm | - | - | - |
| 1787862932 | 17.78° C | 82% | - | 0 mm | - | - | - |
| 1787862332 | 17.78° C | 79% | - | 0 mm | - | - | - |
| 1787861505 | 18.33° C | 78% | - | 0 mm | - | - | - |
* Rain latest hour (hover to see other rain measurements)
** Current wind speed in m/s (hover to see current wind gust speed)